• In Hungary
  • List of Countries
  • For 7 days
  • Water Temperature
  • Satellite Maps
  • Weather Map
  • News
  • Weather Widgets
  • user-avatar
    Login

    Hourly Weather Przybowka

    Today, 24 September, Monday

    Time Temperature Precipitation Wind Pressure Humidity
    00:00 +14°C° 0.2 mm 10 mps 731 mmHg 67%
    01:00 +14°C° 0.2 mm 10 mps 730 mmHg 70%
    02:00 +13°C° 0.5 mm 9 mps 731 mmHg 75%
    03:00 +12°C° 0.5 mm 9 mps 731 mmHg 79%
    04:00 +12°C° 0.5 mm 9 mps 732 mmHg 84%
    05:00 +10°C° 0.4 mm 8 mps 734 mmHg 83%
    06:00 +9°C° 0.4 mm 7 mps 735 mmHg 83%
    07:00 +8°C° 0.4 mm 7 mps 737 mmHg 83%
    08:00 +8°C° 0.2 mm 7 mps 738 mmHg 81%
    09:00 +8°C° 0.2 mm 7 mps 739 mmHg 80%
    10:00 +9°C° 0.2 mm 7 mps 740 mmHg 78%
    11:00 +9°C° 0.1 mm 8 mps 740 mmHg 72%
    12:00 +10°C° 0.1 mm 8 mps 741 mmHg 66%
    13:00 +10°C° 0.1 mm 9 mps 742 mmHg 60%
    14:00 +10°C° 0 mm 8 mps 742 mmHg 59%
    15:00 +10°C° 0 mm 8 mps 742 mmHg 58%
    16:00 +10°C° 0 mm 7 mps 742 mmHg 57%
    17:00 +9°C° 0 mm 7 mps 742 mmHg 60%
    18:00 +8°C° 0 mm 6 mps 743 mmHg 64%
    19:00 +7°C° 0 mm 5 mps 743 mmHg 68%
    20:00 +6°C° 0 mm 5 mps 744 mmHg 69%
    21:00 +6°C° 0 mm 5 mps 744 mmHg 71%
    22:00 +5°C° 0 mm 6 mps 744 mmHg 73%
    23:00 +5°C° 0.3 mm 6 mps 745 mmHg 77%

    Tomorrow, 25 September, Tuesday

    Time Temperature Precipitation Wind Pressure Humidity
    00:00 +6°C° 0.3 mm 5 mps 745 mmHg 81%
    01:00 +5°C° 0.3 mm 5 mps 746 mmHg 86%
    02:00 +5°C° 0 mm 5 mps 746 mmHg 87%
    03:00 +4°C° 0 mm 4 mps 747 mmHg 88%
    04:00 +4°C° 0 mm 4 mps 747 mmHg 90%
    05:00 +4°C° 0 mm 4 mps 748 mmHg 88%
    06:00 +5°C° 0 mm 5 mps 748 mmHg 86%
    07:00 +5°C° 0 mm 5 mps 749 mmHg 85%
    08:00 +6°C° 0 mm 5 mps 749 mmHg 77%
    09:00 +8°C° 0 mm 6 mps 750 mmHg 69%
    10:00 +9°C° 0 mm 6 mps 750 mmHg 61%
    11:00 +10°C° 0.2 mm 6 mps 750 mmHg 57%
    12:00 +10°C° 0.2 mm 6 mps 750 mmHg 54%
    13:00 +11°C° 0.2 mm 6 mps 751 mmHg 51%
    14:00 +10°C° 0.1 mm 5 mps 751 mmHg 52%
    15:00 +10°C° 0.1 mm 5 mps 751 mmHg 53%
    16:00 +11°C° 0.1 mm 4 mps 751 mmHg 54%
    17:00 +9°C° 0 mm 3 mps 752 mmHg 58%
    18:00 +8°C° 0 mm 3 mps 752 mmHg 61%
    19:00 +6°C° 0 mm 2 mps 753 mmHg 65%
    20:00 +6°C° 0 mm 2 mps 753 mmHg 67%
    21:00 +5°C° 0 mm 2 mps 754 mmHg 69%
    22:00 +5°C° 0 mm 2 mps 754 mmHg 71%
    23:00 +4°C° 0 mm 2 mps 754 mmHg 74%

    Day after tomorrow, 26 September, Wednesday

    Time Temperature Precipitation Wind Pressure Humidity
    00:00 +5°C° 0 mm 1 mps 755 mmHg 77%
    01:00 +4°C° 0 mm 1 mps 755 mmHg 80%
    02:00 +4°C° 0 mm 1 mps 755 mmHg 82%
    03:00 +4°C° 0 mm 1 mps 755 mmHg 84%
    04:00 +3°C° 0 mm 1 mps 755 mmHg 87%
    05:00 +4°C° 0 mm 1 mps 755 mmHg 84%
    06:00 +5°C° 0 mm 1 mps 756 mmHg 80%
    07:00 +6°C° 0 mm 1 mps 756 mmHg 77%
    08:00 +8°C° 0 mm 1 mps 756 mmHg 67%
    09:00 +9°C° 0 mm 2 mps 756 mmHg 57%
    10:00 +12°C° 0 mm 2 mps 755 mmHg 48%
    11:00 +13°C° 0 mm 2 mps 755 mmHg 44%
    12:00 +14°C° 0 mm 2 mps 754 mmHg 41%
    13:00 +15°C° 0 mm 2 mps 754 mmHg 37%
    14:00 +14°C° 0 mm 2 mps 753 mmHg 41%
    15:00 +14°C° 0 mm 1 mps 753 mmHg 44%
    16:00 +14°C° 0 mm 1 mps 752 mmHg 47%
    17:00 +13°C° 0 mm 2 mps 752 mmHg 49%
    18:00 +10°C° 0 mm 2 mps 752 mmHg 51%
    19:00 +9°C° 0 mm 2 mps 752 mmHg 54%
    20:00 +9°C° 0 mm 2 mps 752 mmHg 55%
    21:00 +9°C° 0 mm 3 mps 751 mmHg 55%
    22:00 +9°C° 0 mm 3 mps 751 mmHg 56%
    23:00 +9°C° 0 mm 3 mps 751 mmHg 57%

    27 September, Thursday

    Time Temperature Precipitation Wind Pressure Humidity
    00:00 +9°C° 0 mm 3 mps 751 mmHg 58%
    01:00 +9°C° 0 mm 3 mps 751 mmHg 59%
    02:00 +9°C° 0 mm 3 mps 750 mmHg 58%
    03:00 +8°C° 0 mm 4 mps 750 mmHg 56%
    04:00 +8°C° 0 mm 4 mps 750 mmHg 55%
    05:00 +8°C° 0 mm 4 mps 749 mmHg 55%
    06:00 +8°C° 0 mm 4 mps 749 mmHg 54%
    07:00 +8°C° 0 mm 4 mps 749 mmHg 54%
    08:00 +11°C° 0 mm 4 mps 749 mmHg 51%
    09:00 +13°C° 0 mm 4 mps 749 mmHg 48%
    10:00 +15°C° 0 mm 5 mps 749 mmHg 46%
    11:00 +16°C° 0 mm 5 mps 749 mmHg 46%
    12:00 +17°C° 0 mm 5 mps 748 mmHg 46%
    13:00 +19°C° 0 mm 5 mps 748 mmHg 47%
    14:00 +19°C° 0 mm 4 mps 748 mmHg 50%
    15:00 +19°C° 0 mm 4 mps 747 mmHg 53%
    16:00 +18°C° 0 mm 3 mps 747 mmHg 56%
    17:00 +17°C° 0 mm 3 mps 747 mmHg 58%
    18:00 +14°C° 0 mm 3 mps 747 mmHg 60%
    19:00 +12°C° 0 mm 3 mps 746 mmHg 63%
    20:00 +12°C° 0 mm 3 mps 746 mmHg 63%
    21:00 +12°C° 0 mm 3 mps 746 mmHg 63%
    22:00 +11°C° 0 mm 3 mps 746 mmHg 64%
    23:00 +11°C° 0 mm 3 mps 746 mmHg 64%

    28 September, Friday

    Time Temperature Precipitation Wind Pressure Humidity
    00:00 +11°C° 0 mm 3 mps 745 mmHg 65%
    01:00 +10°C° 0 mm 3 mps 745 mmHg 66%
    02:00 +10°C° 0 mm 3 mps 745 mmHg 67%
    03:00 +10°C° 0 mm 3 mps 744 mmHg 67%
    04:00 +10°C° 0 mm 3 mps 744 mmHg 68%
    05:00 +10°C° 0 mm 3 mps 744 mmHg 67%
    06:00 +11°C° 0 mm 3 mps 744 mmHg 66%
    07:00 +11°C° 0 mm 3 mps 744 mmHg 66%
    08:00 +13°C° 0 mm 3 mps 744 mmHg 62%
    09:00 +16°C° 0 mm 3 mps 744 mmHg 58%
    10:00 +18°C° 0 mm 3 mps 744 mmHg 54%
    11:00 +19°C° 0 mm 3 mps 744 mmHg 53%
    12:00 +20°C° 0 mm 2 mps 743 mmHg 51%
    13:00 +20°C° 0 mm 2 mps 743 mmHg 50%
    14:00 +20°C° 0 mm 2 mps 743 mmHg 53%
    15:00 +20°C° 0 mm 2 mps 743 mmHg 56%
    16:00 +20°C° 0 mm 1 mps 743 mmHg 60%
    17:00 +19°C° 0 mm 1 mps 743 mmHg 66%
    18:00 +16°C° 0 mm 1 mps 743 mmHg 72%
    19:00 +14°C° 0 mm 2 mps 743 mmHg 78%
    20:00 +14°C° 0 mm 1 mps 743 mmHg 82%
    21:00 +13°C° 0 mm 1 mps 743 mmHg 85%
    22:00 +13°C° 0 mm 1 mps 743 mmHg 89%
    23:00 +13°C° 0.3 mm 1 mps 743 mmHg 91%

    29 September, Saturday

    Time Temperature Precipitation Wind Pressure Humidity
    00:00 +13°C° 0.3 mm 2 mps 743 mmHg 92%
    01:00 +13°C° 0.3 mm 2 mps 743 mmHg 94%
    02:00 +13°C° 0.9 mm 2 mps 743 mmHg 94%
    03:00 +12°C° 0.9 mm 2 mps 744 mmHg 93%
    04:00 +12°C° 0.9 mm 2 mps 744 mmHg 93%
    05:00 +11°C° 0.2 mm 3 mps 744 mmHg 92%
    06:00 +11°C° 0.2 mm 3 mps 744 mmHg 90%
    07:00 +10°C° 0.2 mm 3 mps 745 mmHg 89%
    08:00 +11°C° 0 mm 3 mps 745 mmHg 80%
    09:00 +12°C° 0 mm 4 mps 746 mmHg 71%
    10:00 +14°C° 0 mm 4 mps 746 mmHg 62%
    11:00 +14°C° 0 mm 4 mps 746 mmHg 59%
    12:00 +14°C° 0 mm 4 mps 746 mmHg 56%
    13:00 +15°C° 0 mm 4 mps 746 mmHg 53%
    14:00 +14°C° 0 mm 4 mps 746 mmHg 56%
    15:00 +13°C° 0 mm 4 mps 746 mmHg 59%
    16:00 +13°C° 0 mm 4 mps 747 mmHg 62%
    17:00 +11°C° 0 mm 3 mps 747 mmHg 65%
    18:00 +10°C° 0 mm 3 mps 747 mmHg 69%
    19:00 +8°C° 0 mm 2 mps 748 mmHg 72%
    20:00 +8°C° 0 mm 2 mps 748 mmHg 72%
    21:00 +7°C° 0 mm 2 mps 748 mmHg 72%
    22:00 +6°C° 0 mm 2 mps 748 mmHg 73%
    23:00 +6°C° 0 mm 2 mps 748 mmHg 73%
    Show more

    3.3.7123123